Fowler, IL

12:40 AM CDT on August 29, 2016 (GMT -0500)
Quincy Regional-Baldwin

Weather History for KUIN - June, 2015

Change the Weather History Date:

Wednesday, June 10, 2015

  Actual Average Record
Temperature  
Mean Temperature 81 °F 71 °F  
Max Temperature 92 °F 80 °F 101 °F (1911)
Min Temperature 69 °F 61 °F 45 °F (1966)
Degree Days  
Heating Degree Days 0 1  
Month to date heating degree days 8 12  
Since 1 June heating degree days 8 12  
Since 1 July heating degree days 5760 5578  
Cooling Degree Days 16 6  
Month to date cooling degree days 71 53  
Year to date cooling degree days 185 139  
Since 1 June cooling degree days 71 53  
Growing Degree Days 30 (Base 50)    
Moisture  
Dew Point 68 °F    
Average Humidity 64    
Maximum Humidity 79    
Minimum Humidity 49    
Precipitation  
Precipitation 0.00 in 0.13 in 2.88 in (1905)
Month to date precipitation 1.12 1.43  
Year to date precipitation 9.80 15.52  
Sea Level Pressure  
Sea Level Pressure 29.77 in    
Wind  
Wind Speed 11 mph (SSW)    
Max Wind Speed 20 mph    
Max Gust Speed 23 mph    
Visibility 10 miles    
Events Thunderstorm    
T = Trace of Precipitation, MM = Missing Value Source: NWS Daily Summary

Daily Weather History Graph

Daily Weather History Graph

Search for Another Location

Airport or City:

Trip Planner

Search our weather history database for the weather conditions in past years. The results will help you decide how hot, cold, wet, or windy it might be!

Date:

Astronomy

Jun. 10, 2015 Rise Set
Actual Time 5:35 AM CDT 8:32 PM CDT
Civil Twilight 5:03 AM CDT 9:05 PM CDT
Nautical Twilight 4:21 AM CDT 9:46 PM CDT
Astronomical Twilight 3:34 AM CDT 10:34 PM CDT
Moon 1:41 AM CDT (6/10) 2:12 PM CDT (6/10)
Length of Visible Light 16h 02m
Length of Day
14h 57m
Last Quarter, 38% of the Moon is Illuminated
Jun 10
Last Quarter
Jun 16
New
Jun 24
First Quarter
Jul 1
Full
Jul 8
Last Quarter

Hourly Weather History & Observations

Time (CDT) Temp. Heat Index Dew Point Humidity Pressure Visibility Wind Dir Wind Speed Gust Speed Precip Events Conditions
12:54 AM 71.1 °F - 64.0 °F 78% 29.78 in 10.0 mi SSW 8.1 mph - N/A   Clear
1:54 AM 70.0 °F - 63.0 °F 78% 29.77 in 10.0 mi SW 6.9 mph - N/A   Clear
2:54 AM 69.1 °F - 63.0 °F 81% 29.77 in 10.0 mi SSW 9.2 mph - N/A   Clear
3:54 AM 69.1 °F - 62.1 °F 78% 29.78 in 10.0 mi SSW 9.2 mph - N/A   Clear
4:54 AM 70.0 °F - 62.1 °F 76% 29.78 in 10.0 mi South 9.2 mph - N/A   Clear
5:54 AM 70.0 °F - 62.1 °F 76% 29.79 in 10.0 mi SSW 9.2 mph - N/A   Clear
6:54 AM 73.0 °F - 63.0 °F 71% 29.79 in 10.0 mi SSW 10.4 mph - N/A   Clear
7:54 AM 75.9 °F - 64.9 °F 69% 29.80 in 10.0 mi SW 8.1 mph - N/A   Clear
8:54 AM 80.1 °F 82.3 °F 66.9 °F 64% 29.79 in 10.0 mi SW 10.4 mph - N/A   Clear
9:54 AM 82.9 °F 85.8 °F 68.0 °F 60% 29.78 in 10.0 mi SSW 13.8 mph - N/A   Clear
10:54 AM 86.0 °F 89.4 °F 68.0 °F 55% 29.78 in 10.0 mi SSW 15.0 mph - N/A   Clear
11:54 AM 88.0 °F 92.9 °F 70.0 °F 55% 29.77 in 10.0 mi SSW 12.7 mph - N/A   Clear
12:54 PM 90.0 °F 95.4 °F 70.0 °F 52% 29.76 in 10.0 mi SSW 17.3 mph 21.9 mph N/A   Clear
1:54 PM 91.0 °F 97.6 °F 71.1 °F 52% 29.75 in 10.0 mi SSW 15.0 mph 23.0 mph N/A   Clear
2:54 PM 91.0 °F 96.6 °F 70.0 °F 50% 29.74 in 10.0 mi SSW 15.0 mph - N/A   Clear
3:54 PM 91.4 °F 96.8 °F 69.8 °F 49% 29.75 in 10.0 mi SSW 17.3 mph - N/A   Clear
4:54 PM 91.9 °F 98.4 °F 71.1 °F 50% 29.72 in 10.0 mi SSW 15.0 mph - N/A   Clear
5:54 PM 91.0 °F 98.2 °F 72.0 °F 53% 29.70 in 10.0 mi SW 11.5 mph - N/A   Clear
6:54 PM 89.1 °F 96.0 °F 72.0 °F 57% 29.71 in 10.0 mi SSW 13.8 mph - N/A   Clear
7:54 PM 84.0 °F 89.6 °F 72.0 °F 67% 29.71 in 10.0 mi SSW 6.9 mph - N/A   Clear
8:54 PM 81.0 °F 85.2 °F 72.0 °F 74% 29.72 in 10.0 mi SSW 5.8 mph - N/A   Clear
9:54 PM 81.0 °F 84.9 °F 71.1 °F 72% 29.73 in 10.0 mi SSW 6.9 mph - N/A   Clear
10:54 PM 80.1 °F 83.6 °F 71.1 °F 74% 29.80 in 10.0 mi WNW 13.8 mph - N/A   Scattered Clouds
11:15 PM 80.1 °F 82.7 °F 68.0 °F 67% 29.81 in 10.0 mi North 8.1 mph - N/A Thunderstorm Scattered Clouds
11:43 PM 77.0 °F - 66.0 °F 69% 29.82 in 10.0 mi NNE 4.6 mph - N/A   Scattered Clouds
11:54 PM 77.0 °F - 68.0 °F 74% 29.80 in 10.0 mi NE 6.9 mph - N/A   Mostly Cloudy